Regional Weather Roundup
Issued by NWS Raleigh/Durham, NC

Home | Current Version | Previous Version | Text Only | Print | Product List | Glossary On
Versions: 1 2 3 4 5 6 7 8 9 10 11 12 13 14 15 16 17 18 19 20 21 22 23 24 25 26 27 28 29 30 31 32 33 34 35 36 37 38 39 40 41 42 43 44 45 46 47 48 49 50
000
ASUS42 KRAH 210210
RWRRAH
NORTH CAROLINA WEATHER ROUNDUP
NATIONAL WEATHER SERVICE RALEIGH NC
1000 PM EDT MON OCT 20 2014

NOTE: "FAIR" INDICATES FEW OR NO CLOUDS BELOW 12,000 FEET WITH NO
SIGNIFICANT WEATHER AND/OR OBSTRUCTIONS TO VISIBILITY.

NCZ001-053-055-056-065-067-210300-
WESTERN NORTH CAROLINA

CITY           SKY/WX    TMP DP  RH WIND       PRES   REMARKS
ASHEVILLE      MOCLDY    55  51  86 CALM      30.02R
JEFFERSON      CLOUDY    54  45  69 W7        30.02R
MORGANTON      CLOUDY    53  53  99 CALM      30.03S
HICKORY        CLOUDY    58  52  80 SW5       29.99R
RUTHERFORDTON  MOCLDY    58  53  81 CALM      30.00S
MOUNT AIRY     CLOUDY    58  52  78 CALM      30.00R
BOONE          PTCLDY    50  46  85 W3        30.04R
$$

NCZ021-022-025-041-071-084-088-210300-
CENTRAL NORTH CAROLINA

CITY           SKY/WX    TMP DP  RH WIND       PRES   REMARKS
CHARLOTTE      PTCLDY    57  49  74 CALM      30.00F
GREENSBORO     MOCLDY    58  51  78 S5        29.98S
WINSTON-SALEM  CLOUDY    62  47  57 S5        29.99S
RALEIGH-DURHAM PTCLDY    56  48  74 CALM      29.99F
FORT BRAGG     MOCLDY    58  54  86 CALM      30.00S
FAYETTEVILLE   PTCLDY    63  56  78 S5        30.00S
BURLINGTON     MOCLDY    57  48  72 S3        29.99R
LAURINBURG     PTCLDY    57  52  83 CALM      30.02R
$$

NCZ011-015-027-028-043-044-047-080-103-210300-
NORTHEASTERN NORTH CAROLINA

CITY           SKY/WX    TMP DP  RH WIND       PRES   REMARKS
ROCKY MT-WILSO PTCLDY    52  50  93 CALM      30.00S
GREENVILLE     PTCLDY    61  55  82 S5        30.03S
WASHINGTON     PTCLDY    61  55  80 S3        30.02S
ELIZABETH CITY PTCLDY    63  55  75 S7        30.02S
MANTEO         CLEAR     64  58  82 SW6       30.03S
CAPE HATTERAS  PTCLDY    71  58  63 S12       30.03F
$$

NCZ078-087-090-091-093-098-101-210300-
SOUTHEASTERN NORTH CAROLINA

CITY           SKY/WX    TMP DP  RH WIND       PRES   REMARKS
LUMBERTON      PTCLDY    61  57  87 SE3       30.00F
GOLDSBORO      PTCLDY    61  60  97 SE3       29.99S
KINSTON        PTCLDY    61  55  82 S5        30.02S
KENANSVILLE    PTCLDY    60  56  87 CALM      30.02S
NEW BERN       PTCLDY    58  54  86 CALM      30.03S
CHERRY POINT   MOCLDY    62  56  80 N5        30.03S
BEAUFORT       MOCLDY    71  59  65 S7        30.02S
JACKSONVILLE   MOCLDY    61  58  90 CALM      30.01S
WILMINGTON     PTCLDY    60  57  89 NW3       30.01S
$$



USA.gov is the U.S. government's official web portal to all federal, state and local government web resources and services.